Location: STAR School
(35.3054°N, 111.2976°W)
Time: 08:23:10
(UTC-07:00)

SR - All Passes

Search period start: 21 May 2019 00:00
Search period end: 31 May 2019 00:00
Orbit: 583 x 873 km, 66.7° (Epoch: 21 May)

Date Brightness Start Highest point End Pass type
(mag) Time Alt. Az. Time Alt. Az. Time Alt. Az.
21 May - 10:30:30 10° SSE 10:33:49 21° ESE 10:37:04 10° ENE daylight
21 May - 12:11:52 10° WSW 12:15:38 28° WNW 12:19:20 10° N daylight
21 May - 20:53:49 10° NNW 20:58:30 83° ENE 21:03:37 10° SSE visible
22 May - 11:21:35 10° SW 11:25:57 68° WNW 11:30:10 10° NNE daylight
22 May - 20:04:30 10° N 20:08:52 37° ENE 20:13:32 10° SE visible
22 May - 21:47:05 10° WNW 21:50:40 21° WSW 21:54:29 10° SSW visible
23 May - 10:32:10 10° S 10:36:24 47° ESE 10:40:29 10° NE daylight
23 May - 12:16:16 10° W 12:18:38 14° NW 12:20:58 10° NNW daylight
23 May - 19:15:46 10° N 19:19:02 19° NE 19:22:29 10° E daylight
23 May - 20:56:41 10° NW 21:01:13 47° WSW 21:06:08 10° S visible
24 May - 09:43:50 10° SSE 09:46:59 20° ESE 09:50:04 10° ENE daylight
24 May - 11:24:55 10° WSW 11:28:45 30° WNW 11:32:32 10° N daylight
24 May - 20:06:56 10° NNW 20:11:40 78° ENE 20:16:47 10° SSE visible
25 May - 10:34:43 10° SSW 10:39:04 74° WNW 10:43:19 10° NNE daylight
25 May - 19:17:41 10° N 19:22:00 35° ENE 19:26:37 10° SE daylight
25 May - 21:00:05 10° WNW 21:03:51 23° WSW 21:07:50 10° SSW visible
26 May - 09:45:24 10° S 09:49:33 43° ESE 09:53:35 10° NE daylight
26 May - 11:29:11 10° W 11:31:44 15° NW 11:34:16 10° NNW daylight
26 May - 18:29:00 10° N 18:32:10 18° NE 18:35:29 10° E daylight
26 May - 20:09:46 10° NW 20:14:22 50° WSW 20:19:23 10° S visible
27 May - 08:57:10 10° SSE 09:00:08 18° ESE 09:03:03 10° ENE daylight
27 May - 10:37:58 10° WSW 10:41:53 32° WNW 10:45:43 10° N daylight
27 May - 19:20:05 10° NNW 19:24:49 73° ENE 19:29:58 10° SSE daylight
27 May - 21:05:16 10° W 21:06:22 11° WSW 21:07:29 10° WSW visible
28 May - 09:47:51 10° SSW 09:52:12 80° WNW 09:56:28 10° NNE daylight
28 May - 18:30:51 10° N 18:35:08 33° ENE 18:39:43 10° ESE daylight
28 May - 20:13:06 10° NW 20:17:01 25° WSW 20:21:10 10° SSW visible
29 May - 08:58:37 10° S 09:02:41 40° ESE 09:06:40 10° NE daylight
29 May - 10:42:07 10° W 10:44:50 16° NW 10:47:33 10° NNW daylight
29 May - 17:42:14 10° NNE 17:45:17 17° NE 17:48:28 10° E daylight
29 May - 19:22:52 10° NW 19:27:33 54° WSW 19:32:36 10° S daylight
30 May - 08:10:33 10° SSE 08:13:18 17° ESE 08:16:01 10° ENE daylight
30 May - 09:51:02 10° SW 09:55:00 35° WNW 09:58:54 10° N daylight
30 May - 18:33:13 10° NNW 18:37:58 68° ENE 18:43:07 10° SE daylight
30 May - 20:17:48 10° W 20:19:33 12° WSW 20:21:20 10° SW visible
